contact:dominique.lefevre@mio.osupytheas.fr, maurice.libes@osupytheas.fr, didier.mallarino@osupytheas.fr
Project:EMSO http://www.emso-fr.org/EMSO-France
Depth: 2436.0 m
Title:EMSO Ligure Ouest : Data MII capteur CSTAR
DateTime,Latitude,Longitude,Instrument_Serial,Reference_Counts,Signal_Counts,Corrected_Signal_raw_counts,Calculated_Beam_c_inverse_meters,Internal_thermistor_counts
DateTime,Latitude,Longitude,Instrument_Serial,Reference_Counts,Signal_Counts,Corrected_Signal_raw_counts,Calculated_Beam_c_inverse_meters,Internal_thermistor_counts
2024-04-14T00:00:32,42.805,6.029,CST-1368DR,4094,4281,11081,01.372,553
2024-04-14T00:03:33,42.805,6.029,CST-1368DR,4094,4282,11082,01.372,553
2024-04-14T00:06:35,42.805,6.029,CST-1368DR,4095,4282,11080,01.373,553
2024-04-14T00:09:36,42.805,6.029,CST-1368DR,4095,4281,11076,01.374,553
2024-04-14T00:12:38,42.805,6.029,CST-1368DR,4094,4282,11082,01.372,553
2024-04-14T00:15:39,42.805,6.029,CST-1368DR,4094,4281,11079,01.373,553
2024-04-14T00:18:41,42.805,6.029,CST-1368DR,4095,4282,11079,01.373,553
2024-04-14T00:21:43,42.805,6.029,CST-1368DR,4095,4281,11077,01.374,553
2024-04-14T00:24:44,42.805,6.029,CST-1368DR,4094,4282,11081,01.372,553
2024-04-14T00:27:46,42.805,6.029,CST-1368DR,4095,4282,11079,01.373,553
2024-04-14T00:30:47,42.805,6.029,CST-1368DR,4094,4281,11081,01.372,553
2024-04-14T00:33:49,42.805,6.029,CST-1368DR,4094,4280,11077,01.374,553
2024-04-14T00:36:50,42.805,6.029,CST-1368DR,4094,4281,11079,01.373,553
2024-04-14T00:39:52,42.805,6.029,CST-1368DR,4095,4282,11079,01.373,553
2024-04-14T00:42:54,42.805,6.029,CST-1368DR,4095,4281,11077,01.374,553
2024-04-14T00:45:55,42.805,6.029,CST-1368DR,4094,4280,11077,01.374,553
2024-04-14T00:48:57,42.805,6.029,CST-1368DR,4094,4282,11082,01.372,553
2024-04-14T00:51:58,42.805,6.029,CST-1368DR,4094,4282,11081,01.372,553
2024-04-14T00:55:00,42.805,6.029,CST-1368DR,4094,4281,11079,01.373,553
2024-04-14T00:58:02,42.805,6.029,CST-1368DR,4094,4281,11080,01.373,553
2024-04-14T01:01:03,42.805,6.029,CST-1368DR,4094,4281,11080,01.373,553
2024-04-14T01:04:05,42.805,6.029,CST-1368DR,4094,4281,11080,01.373,553
2024-04-14T01:07:06,42.805,6.029,CST-1368DR,4094,4280,11077,01.374,553
2024-04-14T01:10:08,42.805,6.029,CST-1368DR,4094,4280,11077,01.374,553
2024-04-14T01:13:09,42.805,6.029,CST-1368DR,4094,4280,11078,01.373,553
2024-04-14T01:16:11,42.805,6.029,CST-1368DR,4094,4281,11081,01.372,553
2024-04-14T01:19:13,42.805,6.029,CST-1368DR,4094,4281,11079,01.373,553
2024-04-14T01:22:14,42.805,6.029,CST-1368DR,4094,4281,11081,01.372,553
2024-04-14T01:25:16,42.805,6.029,CST-1368DR,4094,4280,11078,01.373,553
2024-04-14T01:28:17,42.805,6.029,CST-1368DR,4094,4282,11082,01.372,553
2024-04-14T01:31:19,42.805,6.029,CST-1368DR,4094,4281,11079,01.373,553
2024-04-14T01:34:21,42.805,6.029,CST-1368DR,4094,4283,11084,01.371,553
2024-04-14T01:37:22,42.805,6.029,CST-1368DR,4094,4281,11079,01.373,553
2024-04-14T01:40:24,42.805,6.029,CST-1368DR,4094,4282,11081,01.372,553
2024-04-14T01:43:25,42.805,6.029,CST-1368DR,4094,4282,11082,01.372,553
2024-04-14T01:46:27,42.805,6.029,CST-1368DR,4094,4281,11081,01.372,553
2024-04-14T01:49:28,42.805,6.029,CST-1368DR,4094,4282,11082,01.372,553
2024-04-14T01:52:30,42.805,6.029,CST-1368DR,4094,4281,11081,01.372,553
2024-04-14T01:55:32,42.805,6.029,CST-1368DR,4094,4283,11084,01.371,553
2024-04-14T01:58:33,42.805,6.029,CST-1368DR,4094,4283,11084,01.371,553
2024-04-14T02:01:35,42.805,6.029,CST-1368DR,4094,4281,11081,01.372,553
2024-04-14T02:04:36,42.805,6.029,CST-1368DR,4094,4283,11084,01.371,553
2024-04-14T02:07:38,42.805,6.029,CST-1368DR,4094,4283,11084,01.371,553
2024-04-14T02:10:39,42.805,6.029,CST-1368DR,4094,4282,11081,01.372,553
2024-04-14T02:13:41,42.805,6.029,CST-1368DR,4094,4283,11084,01.371,553
2024-04-14T02:16:43,42.805,6.029,CST-1368DR,4094,4283,11084,01.371,553
2024-04-14T02:19:44,42.805,6.029,CST-1368DR,4094,4283,11084,01.371,553
2024-04-14T02:22:46,42.805,6.029,CST-1368DR,4094,4283,11084,01.371,553
2024-04-14T02:25:47,42.805,6.029,CST-1368DR,4094,4282,11081,01.372,553
2024-04-14T02:28:49,42.805,6.029,CST-1368DR,4094,4283,11084,01.371,553
2024-04-14T02:31:51,42.805,6.029,CST-1368DR,4094,4280,11078,01.373,553
2024-04-14T02:34:52,42.805,6.029,CST-1368DR,4094,4281,11081,01.372,553
2024-04-14T02:37:54,42.805,6.029,CST-1368DR,4094,4282,11081,01.372,553
2024-04-14T02:40:55,42.805,6.029,CST-1368DR,4094,4282,11082,01.372,553
2024-04-14T02:43:57,42.805,6.029,CST-1368DR,4094,4282,11082,01.372,553
2024-04-14T02:46:58,42.805,6.029,CST-1368DR,4094,4282,11082,01.372,553
2024-04-14T02:50:00,42.805,6.029,CST-1368DR,4094,4282,11081,01.372,553
2024-04-14T02:53:02,42.805,6.029,CST-1368DR,4094,4282,11082,01.372,553
2024-04-14T02:56:03,42.805,6.029,CST-1368DR,4094,4281,11081,01.372,553
2024-04-14T02:59:05,42.805,6.029,CST-1368DR,4094,4282,11082,01.372,553
2024-04-14T03:02:06,42.805,6.029,CST-1368DR,4094,4281,11081,01.372,553
2024-04-14T03:05:08,42.805,6.029,CST-1368DR,4094,4280,11078,01.373,553
2024-04-14T03:08:10,42.805,6.029,CST-1368DR,4094,4281,11079,01.373,553
2024-04-14T03:11:11,42.805,6.029,CST-1368DR,4094,4282,11082,01.372,553
2024-04-14T03:14:13,42.805,6.029,CST-1368DR,4094,4283,11084,01.371,553
2024-04-14T03:17:14,42.805,6.029,CST-1368DR,4094,4282,11082,01.372,553
2024-04-14T03:20:16,42.805,6.029,CST-1368DR,4094,4283,11084,01.371,553
2024-04-14T03:23:17,42.805,6.029,CST-1368DR,4094,4283,11085,01.371,553
2024-04-14T03:26:19,42.805,6.029,CST-1368DR,4094,4281,11079,01.373,553
2024-04-14T03:29:21,42.805,6.029,CST-1368DR,4094,4282,11082,01.372,553
2024-04-14T03:32:22,42.805,6.029,CST-1368DR,4094,4282,11082,01.372,553
2024-04-14T03:35:24,42.805,6.029,CST-1368DR,4094,4281,11079,01.373,553
2024-04-14T03:38:25,42.805,6.029,CST-1368DR,4094,4283,11086,01.370,553
2024-04-14T03:41:27,42.805,6.029,CST-1368DR,4095,4283,11081,01.372,553
2024-04-14T03:44:28,42.805,6.029,CST-1368DR,4095,4283,11082,01.372,553
2024-04-14T03:47:30,42.805,6.029,CST-1368DR,4094,4283,11085,01.371,553
2024-04-14T03:50:32,42.805,6.029,CST-1368DR,4095,4283,11082,01.372,553
2024-04-14T03:53:33,42.805,6.029,CST-1368DR,4094,4277,11070,01.376,553
2024-04-14T03:56:35,42.805,6.029,CST-1368DR,4094,4282,11081,01.372,553
2024-04-14T03:59:36,42.805,6.029,CST-1368DR,4094,4282,11082,01.372,553
2024-04-14T04:02:38,42.805,6.029,CST-1368DR,4094,4282,11081,01.372,553
2024-04-14T04:05:40,42.805,6.029,CST-1368DR,4094,4282,11081,01.372,553
2024-04-14T04:08:41,42.805,6.029,CST-1368DR,4094,4288,11097,01.366,553
2024-04-14T04:11:43,42.805,6.029,CST-1368DR,4094,4284,11087,01.370,553
2024-04-14T04:14:44,42.805,6.029,CST-1368DR,4094,4286,11093,01.368,553
2024-04-14T04:17:46,42.805,6.029,CST-1368DR,4094,4287,11094,01.368,553
2024-04-14T04:20:47,42.805,6.029,CST-1368DR,4094,4287,11094,01.368,553
2024-04-14T04:23:49,42.805,6.029,CST-1368DR,4094,4287,11094,01.368,553
2024-04-14T04:26:51,42.805,6.029,CST-1368DR,4094,4287,11095,01.367,553
2024-04-14T04:29:52,42.805,6.029,CST-1368DR,4094,4286,11093,01.368,553
2024-04-14T04:32:54,42.805,6.029,CST-1368DR,4094,4286,11092,01.368,553
2024-04-14T04:35:55,42.805,6.029,CST-1368DR,4094,4286,11092,01.368,553
2024-04-14T04:38:57,42.805,6.029,CST-1368DR,4095,4287,11093,01.368,553
2024-04-14T04:41:58,42.805,6.029,CST-1368DR,4095,4287,11092,01.368,553
2024-04-14T04:45:00,42.805,6.029,CST-1368DR,4094,4287,11094,01.368,553
2024-04-14T04:48:02,42.805,6.029,CST-1368DR,4095,4287,11092,01.368,553
2024-04-14T04:51:03,42.805,6.029,CST-1368DR,4094,4288,11097,01.366,553
2024-04-14T04:54:05,42.805,6.029,CST-1368DR,4094,4288,11097,01.366,553
2024-04-14T04:57:06,42.805,6.029,CST-1368DR,4095,4286,11090,01.369,553
2024-04-14T05:00:08,42.805,6.029,CST-1368DR,4095,4288,11095,01.367,553
2024-04-14T05:03:10,42.805,6.029,CST-1368DR,4094,4288,11097,01.366,553
2024-04-14T05:06:11,42.805,6.029,CST-1368DR,4094,4288,11097,01.366,553
2024-04-14T05:09:13,42.805,6.029,CST-1368DR,4094,4286,11093,01.368,553
2024-04-14T05:12:14,42.805,6.029,CST-1368DR,4094,4286,11092,01.368,553
2024-04-14T05:15:16,42.805,6.029,CST-1368DR,4094,4287,11095,01.367,553
2024-04-14T05:18:17,42.805,6.029,CST-1368DR,4094,4287,11095,01.367,553
2024-04-14T05:21:19,42.805,6.029,CST-1368DR,4094,4287,11095,01.367,553
2024-04-14T05:24:21,42.805,6.029,CST-1368DR,4094,4287,11095,01.367,553
2024-04-14T05:27:22,42.805,6.029,CST-1368DR,4094,4284,11088,01.370,553
2024-04-14T05:30:24,42.805,6.029,CST-1368DR,4094,4287,11094,01.368,553
2024-04-14T05:33:25,42.805,6.029,CST-1368DR,4095,4288,11095,01.367,553
2024-04-14T05:36:27,42.805,6.029,CST-1368DR,4095,4287,11093,01.368,553
2024-04-14T05:39:28,42.805,6.029,CST-1368DR,4094,4287,11094,01.368,553
2024-04-14T05:42:30,42.805,6.029,CST-1368DR,4094,4287,11096,01.367,553
2024-04-14T05:45:32,42.805,6.029,CST-1368DR,4094,4287,11096,01.367,553
2024-04-14T05:48:33,42.805,6.029,CST-1368DR,4094,4288,11097,01.366,553
2024-04-14T05:51:35,42.805,6.029,CST-1368DR,4094,4287,11094,01.368,553
2024-04-14T05:54:36,42.805,6.029,CST-1368DR,4094,4287,11095,01.367,553
2024-04-14T05:57:38,42.805,6.029,CST-1368DR,4094,4287,11094,01.368,553
2024-04-14T06:00:40,42.805,6.029,CST-1368DR,4094,4287,11095,01.367,553
2024-04-14T06:03:41,42.805,6.029,CST-1368DR,4094,4288,11097,01.366,553
2024-04-14T06:06:43,42.805,6.029,CST-1368DR,4094,4287,11096,01.367,553
2024-04-14T06:09:44,42.805,6.029,CST-1368DR,4094,4286,11093,01.368,553
2024-04-14T06:12:46,42.805,6.029,CST-1368DR,4094,4288,11098,01.366,553
2024-04-14T06:15:47,42.805,6.029,CST-1368DR,4094,4288,11097,01.366,553
2024-04-14T06:18:49,42.805,6.029,CST-1368DR,4094,4288,11097,01.366,553
2024-04-14T06:21:51,42.805,6.029,CST-1368DR,4095,4288,11095,01.367,553
2024-04-14T06:24:52,42.805,6.029,CST-1368DR,4094,4288,11097,01.366,553
2024-04-14T06:27:54,42.805,6.029,CST-1368DR,4094,4288,11097,01.366,553
2024-04-14T06:30:55,42.805,6.029,CST-1368DR,4094,4285,11090,01.369,553
2024-04-14T06:33:57,42.805,6.029,CST-1368DR,4094,4288,11098,01.366,553
2024-04-14T06:36:58,42.805,6.029,CST-1368DR,4094,4286,11093,01.368,553
2024-04-14T06:40:00,42.805,6.029,CST-1368DR,4094,4288,11097,01.366,553
2024-04-14T06:43:02,42.805,6.029,CST-1368DR,4094,4287,11096,01.367,553
2024-04-14T06:46:03,42.805,6.029,CST-1368DR,4094,4287,11096,01.367,553
2024-04-14T06:49:05,42.805,6.029,CST-1368DR,4094,4287,11096,01.367,553
2024-04-14T06:52:06,42.805,6.029,CST-1368DR,4094,4286,11092,01.368,553
2024-04-14T06:55:08,42.805,6.029,CST-1368DR,4094,4287,11096,01.367,553
2024-04-14T06:58:10,42.805,6.029,CST-1368DR,4094,4287,11094,01.368,553
2024-04-14T07:01:11,42.805,6.029,CST-1368DR,4094,4287,11096,01.367,553
2024-04-14T07:04:13,42.805,6.029,CST-1368DR,4094,4287,11095,01.367,553
2024-04-14T07:07:14,42.805,6.029,CST-1368DR,4094,4287,11096,01.367,553
2024-04-14T07:10:16,42.805,6.029,CST-1368DR,4094,4288,11097,01.366,553
2024-04-14T07:13:17,42.805,6.029,CST-1368DR,4095,4288,11095,01.367,553
2024-04-14T07:16:19,42.805,6.029,CST-1368DR,4094,4288,11097,01.366,553
2024-04-14T07:19:21,42.805,6.029,CST-1368DR,4095,4287,11092,01.368,553
2024-04-14T07:22:22,42.805,6.029,CST-1368DR,4094,4288,11097,01.366,553
2024-04-14T07:25:24,42.805,6.029,CST-1368DR,4094,4287,11096,01.367,553
2024-04-14T07:28:25,42.805,6.029,CST-1368DR,4094,4288,11097,01.366,553
2024-04-14T07:31:27,42.805,6.029,CST-1368DR,4094,4288,11097,01.366,553
2024-04-14T07:34:28,42.805,6.029,CST-1368DR,4094,4287,11095,01.367,553
2024-04-14T07:37:30,42.805,6.029,CST-1368DR,4094,4287,11096,01.367,553
2024-04-14T07:40:32,42.805,6.029,CST-1368DR,4094,4288,11098,01.366,553
2024-04-14T07:43:33,42.805,6.029,CST-1368DR,4094,4287,11096,01.367,553
2024-04-14T07:46:35,42.805,6.029,CST-1368DR,4094,4287,11096,01.367,553
2024-04-14T07:49:36,42.805,6.029,CST-1368DR,4094,4288,11097,01.366,553
2024-04-14T07:52:38,42.805,6.029,CST-1368DR,4094,4288,11098,01.366,553
2024-04-14T07:55:40,42.805,6.029,CST-1368DR,4094,4287,11095,01.367,553
2024-04-14T07:58:41,42.805,6.029,CST-1368DR,4094,4288,11098,01.366,553
2024-04-14T08:01:43,42.805,6.029,CST-1368DR,4094,4288,11098,01.366,553
2024-04-14T08:04:44,42.805,6.029,CST-1368DR,4094,4288,11098,01.366,553
2024-04-14T08:07:46,42.805,6.029,CST-1368DR,4094,4287,11095,01.367,553
2024-04-14T08:10:47,42.805,6.029,CST-1368DR,4094,4288,11099,01.366,553
2024-04-14T08:13:49,42.805,6.029,CST-1368DR,4094,4286,11092,01.368,553
2024-04-14T08:16:51,42.805,6.029,CST-1368DR,4094,4288,11097,01.366,553
2024-04-14T08:19:52,42.805,6.029,CST-1368DR,4094,4287,11095,01.367,553
2024-04-14T08:22:54,42.805,6.029,CST-1368DR,4094,4288,11098,01.366,553
2024-04-14T08:25:55,42.805,6.029,CST-1368DR,4094,4288,11099,01.366,553
2024-04-14T08:28:57,42.805,6.029,CST-1368DR,4094,4288,11097,01.366,553
2024-04-14T08:31:58,42.805,6.029,CST-1368DR,4094,4288,11097,01.366,553
2024-04-14T08:35:00,42.805,6.029,CST-1368DR,4094,4288,11097,01.366,553
2024-04-14T08:38:02,42.805,6.029,CST-1368DR,4094,4288,11097,01.366,553
2024-04-14T08:41:03,42.805,6.029,CST-1368DR,4094,4287,11095,01.367,553
2024-04-14T08:44:05,42.805,6.029,CST-1368DR,4094,4288,11097,01.366,553
2024-04-14T08:47:06,42.805,6.029,CST-1368DR,4094,4288,11097,01.366,553
2024-04-14T08:50:08,42.805,6.029,CST-1368DR,4094,4288,11097,01.366,553
2024-04-14T08:53:10,42.805,6.029,CST-1368DR,4094,4286,11093,01.368,553
2024-04-14T08:56:11,42.805,6.029,CST-1368DR,4094,4288,11097,01.366,553
2024-04-14T08:59:13,42.805,6.029,CST-1368DR,4094,4287,11094,01.368,553
2024-04-14T09:02:14,42.805,6.029,CST-1368DR,4094,4287,11095,01.367,553
2024-04-14T09:05:16,42.805,6.029,CST-1368DR,4094,4287,11094,01.368,553
2024-04-14T09:08:17,42.805,6.029,CST-1368DR,4094,4288,11097,01.366,553
2024-04-14T09:11:19,42.805,6.029,CST-1368DR,4094,4286,11093,01.368,553
2024-04-14T09:14:21,42.805,6.029,CST-1368DR,4094,4287,11094,01.368,553
2024-04-14T09:17:22,42.805,6.029,CST-1368DR,4094,4286,11093,01.368,553
2024-04-14T09:20:24,42.805,6.029,CST-1368DR,4094,4287,11095,01.367,553
2024-04-14T09:23:25,42.805,6.029,CST-1368DR,4094,4287,11095,01.367,553
2024-04-14T09:26:27,42.805,6.029,CST-1368DR,4094,4285,11091,01.369,553
2024-04-14T09:29:28,42.805,6.029,CST-1368DR,4094,4283,11084,01.371,553
2024-04-14T09:32:30,42.805,6.029,CST-1368DR,4094,4287,11095,01.367,553
2024-04-14T09:35:32,42.805,6.029,CST-1368DR,4094,4285,11089,01.369,553
2024-04-14T09:38:33,42.805,6.029,CST-1368DR,4094,4285,11091,01.369,553
2024-04-14T09:41:35,42.805,6.029,CST-1368DR,4094,4284,11088,01.370,553
2024-04-14T09:44:36,42.805,6.029,CST-1368DR,4094,4286,11092,01.368,553
2024-04-14T09:47:38,42.805,6.029,CST-1368DR,4094,4284,11088,01.370,553
2024-04-14T09:50:40,42.805,6.029,CST-1368DR,4094,4284,11088,01.370,553
2024-04-14T09:53:41,42.805,6.029,CST-1368DR,4094,4283,11086,01.370,553
2024-04-14T09:56:43,42.805,6.029,CST-1368DR,4094,4283,11086,01.370,553
2024-04-14T09:59:44,42.805,6.029,CST-1368DR,4094,4282,11082,01.372,553
2024-04-14T10:02:46,42.805,6.029,CST-1368DR,4094,4281,11079,01.373,553
2024-04-14T10:05:47,42.805,6.029,CST-1368DR,4094,4281,11079,01.373,553
2024-04-14T10:08:49,42.805,6.029,CST-1368DR,4094,4281,11080,01.373,553
2024-04-14T10:11:51,42.805,6.029,CST-1368DR,4094,4281,11080,01.373,553
2024-04-14T10:14:52,42.805,6.029,CST-1368DR,4094,4284,11088,01.370,553
2024-04-14T10:17:54,42.805,6.029,CST-1368DR,4094,4282,11081,01.372,553
2024-04-14T10:20:55,42.805,6.029,CST-1368DR,4094,4282,11082,01.372,553
2024-04-14T10:23:57,42.805,6.029,CST-1368DR,4094,4281,11081,01.372,553
2024-04-14T10:26:59,42.805,6.029,CST-1368DR,4094,4282,11082,01.372,553
2024-04-14T10:30:00,42.805,6.029,CST-1368DR,4094,4282,11082,01.372,553
2024-04-14T10:33:02,42.805,6.029,CST-1368DR,4094,4282,11081,01.372,553
2024-04-14T10:36:03,42.805,6.029,CST-1368DR,4094,4282,11082,01.372,553
2024-04-14T10:39:05,42.805,6.029,CST-1368DR,4094,4281,11081,01.372,553
2024-04-14T10:42:06,42.805,6.029,CST-1368DR,4094,4281,11081,01.372,553
2024-04-14T10:45:08,42.805,6.029,CST-1368DR,4094,4281,11079,01.373,553
2024-04-14T10:48:10,42.805,6.029,CST-1368DR,4094,4280,11078,01.373,553
2024-04-14T10:51:11,42.805,6.029,CST-1368DR,4094,4280,11078,01.373,553
2024-04-14T10:54:13,42.805,6.029,CST-1368DR,4094,4280,11078,01.373,553
2024-04-14T10:57:14,42.805,6.029,CST-1368DR,4094,4281,11079,01.373,553
2024-04-14T11:00:16,42.805,6.029,CST-1368DR,4094,4280,11077,01.374,553
2024-04-14T11:03:17,42.805,6.029,CST-1368DR,4094,4280,11076,01.374,553
2024-04-14T11:06:19,42.805,6.029,CST-1368DR,4094,4278,11072,01.376,553
2024-04-14T11:09:21,42.805,6.029,CST-1368DR,4094,4280,11077,01.374,553
2024-04-14T11:12:22,42.805,6.029,CST-1368DR,4094,4280,11076,01.374,553
2024-04-14T11:15:24,42.805,6.029,CST-1368DR,4094,4277,11069,01.377,553
2024-04-14T11:18:25,42.805,6.029,CST-1368DR,4094,4278,11072,01.376,553
2024-04-14T11:21:27,42.805,6.029,CST-1368DR,4094,4278,11071,01.376,553
2024-04-14T11:24:28,42.805,6.029,CST-1368DR,4094,4278,11071,01.376,553
2024-04-14T11:27:30,42.805,6.029,CST-1368DR,4094,4276,11068,01.377,553
2024-04-14T11:30:32,42.805,6.029,CST-1368DR,4094,4277,11070,01.376,553
2024-04-14T11:33:33,42.805,6.029,CST-1368DR,4094,4276,11067,01.377,553
2024-04-14T11:36:35,42.805,6.029,CST-1368DR,4094,4275,11064,01.378,553
2024-04-14T11:39:36,42.805,6.029,CST-1368DR,4094,4275,11064,01.378,553
2024-04-14T11:42:38,42.805,6.029,CST-1368DR,4094,4276,11068,01.377,553
2024-04-14T11:45:40,42.805,6.029,CST-1368DR,4094,4273,11060,01.380,553
2024-04-14T11:48:41,42.805,6.029,CST-1368DR,4094,4274,11062,01.379,553
2024-04-14T11:51:43,42.805,6.029,CST-1368DR,4094,4275,11063,01.379,553
2024-04-14T11:54:44,42.805,6.029,CST-1368DR,4094,4275,11063,01.379,553
2024-04-14T11:57:46,42.805,6.029,CST-1368DR,4094,4276,11067,01.377,553
2024-04-14T12:00:47,42.805,6.029,CST-1368DR,4094,4274,11062,01.379,553
2024-04-14T12:03:49,42.805,6.029,CST-1368DR,4094,4274,11061,01.379,553
2024-04-14T12:06:51,42.805,6.029,CST-1368DR,4093,4273,11062,01.379,553
2024-04-14T12:09:52,42.805,6.029,CST-1368DR,4093,4274,11064,01.378,553
2024-04-14T12:12:54,42.805,6.029,CST-1368DR,4093,4273,11062,01.379,553
2024-04-14T12:15:55,42.805,6.029,CST-1368DR,4093,4271,11056,01.381,553
2024-04-14T12:18:57,42.805,6.029,CST-1368DR,4093,4274,11064,01.378,553
2024-04-14T12:21:58,42.805,6.029,CST-1368DR,4093,4275,11066,01.378,553
2024-04-14T12:25:00,42.805,6.029,CST-1368DR,4093,4273,11060,01.380,553
2024-04-14T12:28:02,42.805,6.029,CST-1368DR,4093,4272,11060,01.380,553
2024-04-14T12:31:03,42.805,6.029,CST-1368DR,4093,4274,11063,01.379,553
2024-04-14T12:34:05,42.805,6.029,CST-1368DR,4093,4274,11063,01.379,553
2024-04-14T12:37:06,42.805,6.029,CST-1368DR,4093,4274,11064,01.378,553
2024-04-14T12:40:08,42.805,6.029,CST-1368DR,4093,4274,11064,01.378,553
2024-04-14T12:43:10,42.805,6.029,CST-1368DR,4093,4274,11064,01.378,553
2024-04-14T12:46:11,42.805,6.029,CST-1368DR,4093,4273,11060,01.380,553
2024-04-14T12:49:13,42.805,6.029,CST-1368DR,4093,4274,11064,01.378,553
2024-04-14T12:52:14,42.805,6.029,CST-1368DR,4094,4275,11063,01.379,553
2024-04-14T12:55:16,42.805,6.029,CST-1368DR,4094,4273,11060,01.380,553
2024-04-14T12:58:17,42.805,6.029,CST-1368DR,4094,4274,11062,01.379,553
2024-04-14T13:01:19,42.805,6.029,CST-1368DR,4094,4274,11062,01.379,553
2024-04-14T13:04:21,42.805,6.029,CST-1368DR,4094,4273,11058,01.381,553
2024-04-14T13:07:22,42.805,6.029,CST-1368DR,4094,4274,11062,01.379,553
2024-04-14T13:10:24,42.805,6.029,CST-1368DR,4094,4275,11064,01.378,553
2024-04-14T13:13:25,42.805,6.029,CST-1368DR,4094,4273,11058,01.381,553
2024-04-14T13:16:27,42.805,6.029,CST-1368DR,4093,4273,11062,01.379,553
2024-04-14T13:19:28,42.805,6.029,CST-1368DR,4094,4274,11062,01.379,553
2024-04-14T13:22:30,42.805,6.029,CST-1368DR,4094,4274,11061,01.379,553
2024-04-14T13:25:32,42.805,6.029,CST-1368DR,4093,4273,11060,01.380,553
2024-04-14T13:28:33,42.805,6.029,CST-1368DR,4094,4274,11062,01.379,553
2024-04-14T13:31:35,42.805,6.029,CST-1368DR,4093,4272,11059,01.380,553
2024-04-14T13:34:36,42.805,6.029,CST-1368DR,4094,4284,11086,01.370,553
2024-04-14T13:37:38,42.805,6.029,CST-1368DR,4093,4257,11020,01.394,553
2024-04-14T13:40:40,42.805,6.029,CST-1368DR,4093,4283,11088,01.370,553
2024-04-14T13:43:41,42.805,6.029,CST-1368DR,4093,4283,11088,01.370,553
2024-04-14T13:46:43,42.805,6.029,CST-1368DR,4093,4284,11089,01.369,553
2024-04-14T13:49:44,42.805,6.029,CST-1368DR,4093,4283,11086,01.370,553
2024-04-14T13:52:46,42.805,6.029,CST-1368DR,4093,4280,11079,01.373,553
2024-04-14T13:55:47,42.805,6.029,CST-1368DR,4093,4283,11088,01.370,553
2024-04-14T13:58:49,42.805,6.029,CST-1368DR,4093,4285,11093,01.368,553
2024-04-14T14:01:51,42.805,6.029,CST-1368DR,4093,4283,11088,01.370,553
2024-04-14T14:04:52,42.805,6.029,CST-1368DR,4093,4284,11091,01.369,553
2024-04-14T14:07:54,42.805,6.029,CST-1368DR,4093,4283,11088,01.370,553
2024-04-14T14:10:55,42.805,6.029,CST-1368DR,4093,4283,11088,01.370,553
2024-04-14T14:13:57,42.805,6.029,CST-1368DR,4093,4283,11088,01.370,553
2024-04-14T14:16:58,42.805,6.029,CST-1368DR,4093,4284,11090,01.369,553
2024-04-14T14:20:00,42.805,6.029,CST-1368DR,4094,4282,11082,01.372,553
2024-04-14T14:23:02,42.805,6.029,CST-1368DR,4094,4285,11090,01.369,553
2024-04-14T14:26:03,42.805,6.029,CST-1368DR,4094,4286,11093,01.368,553
2024-04-14T14:29:05,42.805,6.029,CST-1368DR,4094,4286,11093,01.368,553
2024-04-14T14:32:06,42.805,6.029,CST-1368DR,4094,4286,11092,01.368,553
2024-04-14T14:35:08,42.805,6.029,CST-1368DR,4094,4287,11094,01.368,553
2024-04-14T14:38:10,42.805,6.029,CST-1368DR,4094,4286,11092,01.368,553
2024-04-14T14:41:11,42.805,6.029,CST-1368DR,4094,4275,11065,01.378,553
2024-04-14T14:44:13,42.805,6.029,CST-1368DR,4094,4280,11077,01.374,553
2024-04-14T14:47:14,42.805,6.029,CST-1368DR,4094,4283,11084,01.371,553
2024-04-14T14:50:16,42.805,6.029,CST-1368DR,4094,4287,11096,01.367,553
2024-04-14T14:53:17,42.805,6.029,CST-1368DR,4094,4287,11095,01.367,553
2024-04-14T14:56:19,42.805,6.029,CST-1368DR,4094,4282,11082,01.372,553
2024-04-14T14:59:21,42.805,6.029,CST-1368DR,4094,4281,11081,01.372,553
2024-04-14T15:02:22,42.805,6.029,CST-1368DR,4094,4284,11087,01.370,553
2024-04-14T15:05:24,42.805,6.029,CST-1368DR,4094,4280,11078,01.373,553
2024-04-14T15:08:25,42.805,6.029,CST-1368DR,4094,4279,11075,01.374,553
2024-04-14T15:11:27,42.805,6.029,CST-1368DR,4094,4283,11084,01.371,553
2024-04-14T15:14:28,42.805,6.029,CST-1368DR,4094,4277,11068,01.377,553
2024-04-14T15:17:30,42.805,6.029,CST-1368DR,4094,4280,11077,01.374,553
2024-04-14T15:20:32,42.805,6.029,CST-1368DR,4094,4281,11081,01.372,553
2024-04-14T15:23:33,42.805,6.029,CST-1368DR,4094,4281,11080,01.373,553
2024-04-14T15:26:35,42.805,6.029,CST-1368DR,4094,4285,11090,01.369,553
2024-04-14T15:29:36,42.805,6.029,CST-1368DR,4094,4285,11090,01.369,553
2024-04-14T15:32:38,42.805,6.029,CST-1368DR,4094,4279,11075,01.374,553
2024-04-14T15:35:39,42.805,6.029,CST-1368DR,4094,4277,11070,01.376,553
2024-04-14T15:38:41,42.805,6.029,CST-1368DR,4094,4287,11095,01.367,553
2024-04-14T15:41:43,42.805,6.029,CST-1368DR,4094,4285,11091,01.369,553
2024-04-14T15:44:44,42.805,6.029,CST-1368DR,4094,4284,11087,01.370,553
2024-04-14T15:47:46,42.805,6.029,CST-1368DR,4094,4283,11084,01.371,553
2024-04-14T15:50:47,42.805,6.029,CST-1368DR,4094,4288,11099,01.366,553
2024-04-14T15:53:49,42.805,6.029,CST-1368DR,4094,4288,11097,01.366,553
2024-04-14T15:56:51,42.805,6.029,CST-1368DR,4094,4287,11096,01.367,553
2024-04-14T15:59:52,42.805,6.029,CST-1368DR,4094,4288,11097,01.366,553
2024-04-14T16:02:54,42.805,6.029,CST-1368DR,4094,4287,11096,01.367,553
2024-04-14T16:05:55,42.805,6.029,CST-1368DR,4094,4287,11095,01.367,553
2024-04-14T16:08:57,42.805,6.029,CST-1368DR,4094,4285,11090,01.369,553
2024-04-14T16:11:58,42.805,6.029,CST-1368DR,4094,4288,11097,01.366,553
2024-04-14T16:15:00,42.805,6.029,CST-1368DR,4094,4288,11097,01.366,553
2024-04-14T16:18:02,42.805,6.029,CST-1368DR,4094,4284,11088,01.370,553
2024-04-14T16:21:03,42.805,6.029,CST-1368DR,4094,4287,11094,01.368,553
2024-04-14T16:24:05,42.805,6.029,CST-1368DR,4094,4287,11095,01.367,553
2024-04-14T16:27:06,42.805,6.029,CST-1368DR,4094,4287,11095,01.367,553
2024-04-14T16:30:08,42.805,6.029,CST-1368DR,4094,4287,11095,01.367,553
2024-04-14T16:33:09,42.805,6.029,CST-1368DR,4094,4288,11097,01.366,553
2024-04-14T16:36:11,42.805,6.029,CST-1368DR,4094,4287,11095,01.367,553